Scottsbluff, NE

3:58 PM MST on January 22, 2018 (GMT -0700)
Heilig

Weather History for KBFF - November, 2012

Change the Weather History Date:

Thursday, November 29, 2012

  Actual Average Record
Temperature  
Mean Temperature 45 °F 30 °F  
Max Temperature 66 °F 43 °F 70 °F (1932)
Min Temperature 23 °F 16 °F -14 °F (1896)
Degree Days  
Heating Degree Days 20 36  
Month to date heating degree days 686 837  
Since 1 July heating degree days 1285 1528  
Cooling Degree Days 0 0  
Month to date cooling degree days 0 0  
Year to date cooling degree days 1208 724  
Moisture  
Dew Point 22 °F    
Average Humidity 54    
Maximum Humidity 88    
Minimum Humidity 19    
Precipitation  
Precipitation 0.00 in 0.01 in 0.24 in (1975)
Month to date precipitation 0.29 0.64  
Year to date precipitation 6.80 15.26  
Snow  
Snow 0.00 in 0.20 in 2.70 in (1975)
Month to date snowfall 3.7 5.5  
Since 1 July snowfall 10.2 8.7  
Snow Depth 0.00 in    
Sea Level Pressure  
Sea Level Pressure 29.99 in    
Wind  
Wind Speed 6 mph (NNW)    
Max Wind Speed 31 mph    
Max Gust Speed 44 mph    
Visibility 10 miles    
Events      
T = Trace of Precipitation, MM = Missing Value Source: NWS Daily Summary

Daily Weather History Graph

Daily Weather History Graph

Search for Another Location

Airport or City:

Trip Planner

Search our weather history database for the weather conditions in past years. The results will help you decide how hot, cold, wet, or windy it might be!

Date:

Astronomy

Nov. 29, 2012 Rise Set
Actual Time 7:00 AM MST 4:24 PM MST
Civil Twilight 6:29 AM MST 4:55 PM MST
Nautical Twilight 5:55 AM MST 5:30 PM MST
Astronomical Twilight 5:21 AM MST 6:03 PM MST
Moon 5:29 PM MST (11/29) 7:49 AM MST (11/29)
Length of Visible Light 10h 25m
Length of Day
9h 23m
Full, 99% of the Moon is Illuminated
Nov 29
Full
Dec 6
Last Quarter
Dec 13
New
Dec 19
First Quarter
Dec 28
Full

Hourly Weather History & Observations

Time (MST) Temp. Windchill Dew Point Humidity Pressure Visibility Wind Dir Wind Speed Gust Speed Precip Events Conditions
12:53 AM 24.1 °F - 17.1 °F 75% 30.01 in 10.0 mi Calm Calm - N/A   Clear
1:53 AM 25.0 °F 19.3 °F 17.1 °F 72% 30.00 in 10.0 mi East 4.6 mph - N/A   Clear
2:53 AM 26.1 °F - 18.0 °F 71% 29.99 in 10.0 mi Calm Calm - N/A   Clear
3:53 AM 25.0 °F - 18.0 °F 75% 29.98 in 10.0 mi Calm Calm - N/A   Clear
4:53 AM 25.0 °F - 18.0 °F 75% 30.00 in 10.0 mi Calm Calm - N/A   Clear
5:53 AM 23.0 °F - 19.0 °F 85% 30.02 in 10.0 mi Calm Calm - N/A   Clear
6:53 AM 27.0 °F - 21.0 °F 78% 30.04 in 10.0 mi Calm Calm - N/A   Clear
7:53 AM 34.0 °F 31.0 °F 21.9 °F 61% 30.03 in 10.0 mi East 3.5 mph - N/A   Clear
8:53 AM 35.6 °F - 24.8 °F 65% 29.97 in 10.0 mi Calm Calm - N/A   Clear
9:53 AM 42.1 °F 39.2 °F 25.0 °F 51% 30.02 in 10.0 mi East 4.6 mph - N/A   Clear
10:53 AM 62.1 °F - 25.0 °F 24% 29.92 in 10.0 mi West 24.2 mph 39.1 mph N/A   Clear
11:53 AM 63.0 °F - 24.1 °F 23% 29.91 in 10.0 mi WNW 20.7 mph 27.6 mph N/A   Clear
12:53 PM 64.0 °F - 21.0 °F 19% 29.91 in 10.0 mi West 25.3 mph 35.7 mph N/A   Clear
1:53 PM 64.9 °F - 21.0 °F 19% 29.89 in 10.0 mi WNW 21.9 mph 29.9 mph N/A   Clear
2:53 PM 63.0 °F - 21.9 °F 21% 29.91 in 10.0 mi North 17.3 mph 23.0 mph N/A   Clear
3:00 PM 62.6 °F - 24.8 °F 24% 29.92 in 10.0 mi NNW 13.8 mph 23.0 mph N/A   Clear
3:53 PM 60.1 °F - 26.1 °F 27% 29.95 in 10.0 mi NNW 11.5 mph - N/A   Clear
4:53 PM 48.9 °F - 25.0 °F 39% 30.00 in 10.0 mi West 4.6 mph - N/A   Clear
5:53 PM 51.1 °F - 26.1 °F 38% 30.03 in 10.0 mi Calm Calm - N/A   Clear
6:53 PM 43.0 °F - 25.0 °F 49% 30.05 in 10.0 mi Calm Calm - N/A   Clear
7:53 PM 42.1 °F - 25.0 °F 51% 30.06 in 10.0 mi Calm Calm - N/A   Clear
8:53 PM 36.0 °F - 24.1 °F 62% 30.07 in 10.0 mi Calm Calm - N/A   Clear
9:53 PM 28.9 °F - 21.9 °F 75% 30.07 in 10.0 mi Calm Calm - N/A   Clear
10:53 PM 28.9 °F 23.9 °F 21.9 °F 75% 30.03 in 10.0 mi East 4.6 mph - N/A   Clear
11:53 PM 30.0 °F - 21.9 °F 72% 30.02 in 10.0 mi Calm Calm - N/A   Clear